sat.trackr.live / text

‹ back to catalog

STARLINK-37250

NORAD 68609 · 2026-073H

PAYLOAD ACTIVE UNKNOWN

§ Identity

Operator
Country
US
Launch date
2026-04-07
Launch site
AFWTR
Launch vehicle
Mass (kg)
RCS (m²)

Purposes: comms

External: N2YO · Heavens-Above · Gunter

§ Orbital elements

Epoch: 2026-05-25T04:00:03.998880Z

Period
92.85 min
Inclination
97.2850°
Eccentricity
0.0002325
Mean motion
15.50829461 rev/d
Perigee alt
412.7 km
Apogee alt
415.9 km
Semi-major
6,792.4 km
B*
-4.4004e-2
RAAN
344.6661°
Arg perigee
106.8059°
Mean anomaly
214.1424°
Rev number
601

§ Raw data

STARLINK-372501 68609U 26073H   26145.16671295 -.02236639  00000+0 -44004-1 0  99972 68609  97.2850 344.6661 0002325 106.8059 214.1424 15.50829461  6019

JSON: /api/v1/satellites/68609 · /tle

For live sub-satellite position, see the globe view (requires WebGL).

§ Visibility from observer

Set your observer location to see the next 7 days of passes ≥ 10°. The values pass through the URL so the page stays shareable.

No JS? Fill the form by hand. The geolocation button needs JavaScript.